Vorticity
nan nan nan nan nan nan nan nan nan nan nan nan nan nan nan nan nan nan nan nan nan nan nan nan nan nan nan nan nan nan nan nan nan nan nan nan nan nan nan nan nan nan nan nan
nan 10 8 12 10 1 2 5 8 7 15 13 7 12 14 12 8 9 6 7 6 6 7 8 9 10 10 8 8 9 8 8 5 5 7 8 9 9 9 9 11 10 8 nan
nan 10 11 6 5 7 7 9 8 9 8 11 9 11 9 9 11 10 9 8 8 7 7 8 9 9 9 10 10 8 10 8 7 6 5 6 6 7 10 9 10 12 11 nan
nan 8 10 7 7 8 9 13 12 12 5 3 9 10 12 10 11 10 11 9 9 9 7 7 8 10 10 10 10 10 10 9 9 9 7 6 4 5 6 7 9 11 13 nan
nan 10 11 8 11 5 8 19 15 7 8 7 10 5 10 11 13 12 11 10 10 11 10 9 8 9 9 12 11 10 10 9 11 9 5 5 5 6 8 9 9 9 13 nan
nan 10 10 8 12 14 3 2 7 9 7 7 8 11 8 8 8 11 11 11 12 13 11 9 10 12 12 11 11 10 10 8 9 9 9 6 6 6 6 8 8 8 8 nan
nan 11 11 12 10 13 5 2 4 7 6 8 12 11 5 6 11 12 12 15 17 19 17 15 13 11 12 12 12 12 9 9 10 8 9 9 7 7 8 7 8 8 8 nan
nan 13 12 7 7 12 11 4 8 11 9 9 12 9 3 5 14 18 17 16 18 18 20 21 21 18 16 17 18 14 11 12 11 9 8 9 10 8 10 8 8 8 9 nan
nan 6 12 10 10 14 10 9 10 11 9 8 9 10 8 5 4 9 15 12 12 15 16 16 16 16 16 17 18 19 19 18 17 15 13 11 10 8 8 9 8 8 10 nan
nan 9 11 10 7 9 14 12 8 9 10 9 7 9 10 0 2 10 10 8 8 9 10 10 9 10 11 12 12 13 14 15 15 16 17 16 16 15 13 13 11 10 9 nan
nan 8 7 11 12 7 9 4 7 8 10 14 9 10 6 6 12 12 7 7 9 9 8 9 8 9 9 8 8 9 8 8 9 11 14 15 15 16 15 12 10 9 8 nan
nan 8 7 10 10 11 11 13 8 10 9 6 10 10 10 18 16 10 7 7 8 10 10 9 8 8 8 8 7 7 8 8 8 8 9 10 8 6 7 9 9 10 10 nan
nan 5 12 12 8 7 9 10 10 10 11 10 6 10 12 12 8 8 8 8 7 6 7 9 8 8 8 8 8 8 7 6 8 8 8 8 8 6 6 9 11 11 12 nan
nan 8 9 5 6 9 13 11 6 5 13 8 11 11 9 6 5 8 7 6 7 8 8 8 7 6 6 6 6 7 8 8 8 9 9 9 9 10 8 9 10 10 11 nan
nan 10 10 8 12 10 10 14 14 8 10 9 17 19 11 5 5 6 6 7 7 7 6 6 6 6 6 6 7 7 8 8 7 7 8 9 10 10 10 9 9 9 11 nan
nan 9 10 12 15 12 7 10 10 12 9 13 12 13 13 9 9 9 7 5 6 7 6 6 5 5 6 7 8 7 6 6 7 7 9 9 10 10 10 9 10 10 9 nan
nan 10 5 7 9 10 10 8 6 9 11 11 10 15 13 8 10 9 7 7 7 6 6 4 3 5 6 8 9 8 9 8 7 8 9 10 10 10 11 11 11 10 11 nan
nan 9 9 8 10 8 8 13 12 8 13 9 17 18 9 6 8 10 10 11 8 7 6 5 5 6 7 6 8 10 10 10 8 9 10 10 10 10 10 11 12 13 11 nan
nan 11 9 14 7 9 13 12 10 9 11 16 13 8 7 9 7 9 11 10 10 8 6 7 10 10 9 8 9 9 10 9 10 10 10 9 11 11 11 11 11 12 10 nan
nan 10 12 11 12 9 9 12 9 9 14 18 12 9 6 3 5 14 14 9 9 7 8 10 11 11 10 10 10 9 10 10 9 10 10 11 11 11 11 12 12 12 11 nan
nan 10 14 9 9 10 10 10 10 9 18 20 12 9 6 3 10 19 13 8 8 9 10 11 9 9 9 9 9 10 11 10 10 10 11 11 11 13 13 12 12 12 12 nan
nan 9 10 9 12 9 9 10 9 13 17 12 11 10 10 13 11 8 9 9 10 9 7 7 7 7 8 10 11 10 10 9 11 11 12 11 12 14 12 12 12 13 12 nan
nan 9 12 8 9 13 11 12 18 15 11 10 11 11 9 8 10 10 9 8 8 7 7 7 8 9 9 9 9 10 9 10 11 12 11 11 12 12 11 11 12 12 12 nan
nan 11 14 13 6 12 13 12 13 13 12 13 10 10 10 10 9 9 9 8 6 6 7 8 9 10 9 9 10 11 9 10 10 11 11 13 11 11 13 14 15 11 10 nan
nan 14 5 9 11 10 10 12 11 11 10 10 10 11 12 10 9 9 8 7 6 8 9 10 10 10 11 9 10 10 10 11 11 12 11 11 12 13 13 12 11 10 11 nan
nan nan nan nan nan nan nan nan nan nan nan nan nan nan nan nan nan nan nan nan nan nan nan nan nan nan nan nan nan nan nan nan nan nan nan nan nan nan nan nan nan nan nan nan
CAPE
112 258 394 546 489 240 216 450 622 569 465 408 371 401 260 98 73 100 100 93 90 85 111 111 122 122 162 457 762 982 1119 1768 1154 943 772 813 1059 1126 1318 1482 1652 1860 1937 1962
30 114 101 41 447 259 382 430 403 290 167 651 347 474 394 192 203 205 175 160 167 179 180 188 168 170 171 225 363 884 1217 1405 1451 1261 1269 1252 1493 1474 1450 1453 1466 1563 1672 1915
102 28 43 14 177 191 227 259 316 222 398 438 473 539 617 498 314 214 207 203 212 248 265 274 246 235 226 277 395 698 1301 1529 1670 1836 1397 1484 1506 1524 1513 1574 1583 1638 1643 1751
98 46 151 237 271 218 321 192 172 268 390 490 37 55 115 449 466 445 468 441 379 325 303 335 356 338 265 322 381 502 1054 1563 1486 1827 1790 2167 1688 1714 1899 1953 1782 1805 1781 1873
135 154 215 285 325 269 350 0 135 208 193 382 303 397 195 0 309 554 615 665 654 738 616 598 478 423 371 350 427 494 881 1213 1585 1884 1965 1781 2086 1960 1891 1839 2116 2205 2299 1808
340 175 85 169 170 207 5 0 0 0 22 223 11 407 125 61 296 443 501 630 799 995 854 802 842 708 503 418 496 586 953 1590 1288 1607 1674 2320 2382 2417 2010 2046 1646 1788 1826 1826
51 94 157 197 226 150 16 8 79 105 125 120 0 213 250 128 0 10 230 530 510 617 960 898 798 705 465 463 508 598 1053 1588 1313 1251 1715 2092 2306 2543 2606 2629 2012 2083 1820 1969
144 115 66 70 132 7 153 49 32 99 25 77 0 216 108 0 0 0 0 0 0 0 62 496 476 430 431 364 458 641 1007 1650 1520 1221 2001 1996 2149 1653 2067 2288 2129 1940 2185 2461
173 103 12 21 39 0 2 2 0 0 0 9 23 58 4 0 0 0 10 41 63 83 128 197 272 408 510 588 544 489 715 1035 1195 1420 1703 2078 2289 2363 2088 2548 2722 2282 3142 1787
175 278 36 0 0 0 0 0 0 0 29 18 0 0 60 29 0 0 76 154 179 318 674 1238 1134 1599 1990 2107 2297 2620 2556 2652 2600 2293 1981 1816 1931 2105 2355 2467 2727 2581 2122 1500
88 93 157 5 0 0 0 0 0 0 0 22 5 0 0 0 0 0 0 65 379 697 1121 1484 1673 1679 2115 2457 2116 1925 2482 2446 2662 3092 2913 2256 2107 2006 2007 1970 1949 1829 1777 1708
109 96 222 114 4 0 0 0 0 0 0 0 0 0 0 0 0 0 3 318 532 792 1137 1507 1563 1262 1034 1167 1266 1023 1133 1139 1277 1934 2344 1823 1342 1326 1028 938 880 898 854 976
3 86 282 0 0 0 0 0 0 0 0 0 0 3 0 0 0 0 69 252 409 446 615 750 760 696 676 726 866 885 897 1057 1048 1042 1018 1119 1291 1210 662 873 941 819 1044 1581
7 11 77 50 6 0 0 0 0 0 0 0 0 5 0 0 0 0 100 238 349 425 435 450 433 492 502 546 555 621 606 823 945 1075 1001 991 962 780 602 854 1121 1036 1296 1678
11 121 7 8 0 0 0 0 0 0 0 0 0 1 53 0 0 0 98 213 308 379 311 348 310 275 277 264 318 434 309 511 804 813 674 742 804 823 914 1155 1284 1364 1718 1748
0 8 0 0 0 0 0 0 0 0 0 0 0 0 0 0 0 0 179 214 290 282 301 309 209 85 92 140 350 502 356 660 768 724 719 947 1138 1184 1287 1287 1356 1548 1616 1561
0 7 0 22 0 0 0 0 0 0 0 0 1 0 0 0 0 0 138 223 253 251 270 300 121 92 214 270 465 591 712 809 715 425 431 793 711 762 1040 1290 1378 1327 1766 1866
0 2 0 20 0 0 0 0 0 2 0 0 0 0 0 0 0 0 43 201 313 291 302 299 242 205 151 206 135 111 260 514 311 38 0 8 102 352 603 934 1037 1512 1574 1167
0 0 0 0 0 0 3 0 0 11 2 0 0 0 0 0 27 56 48 130 331 321 235 216 122 169 360 88 81 67 60 20 0 0 0 1 56 191 436 677 1052 1034 1158 972
0 0 0 4 34 39 63 0 0 0 67 0 0 0 0 13 0 1 126 112 99 69 53 31 1 24 58 33 0 0 0 0 0 1 3 30 237 374 447 538 660 792 883 848
29 81 95 110 99 12 0 0 0 65 54 0 0 0 0 0 0 0 150 126 64 26 21 33 8 0 0 0 0 0 0 1 4 6 10 23 69 84 220 324 338 522 659 533
56 149 86 25 79 18 0 0 91 27 0 0 0 0 0 0 12 98 118 58 38 34 0 0 0 0 0 0 0 0 2 5 8 12 5 8 18 9 9 21 18 35 24 78
0 0 24 1 2 0 0 0 0 0 0 0 1 7 81 74 60 117 128 56 5 0 0 0 0 0 0 0 4 3 6 10 8 4 10 6 12 10 8 21 29 124 16 26
0 0 9 28 0 0 0 0 0 0 0 0 1 0 3 31 44 52 44 3 0 0 0 0 0 0 0 9 6 8 11 10 8 9 9 5 10 3 9 13 29 39 27 28
0 4 7 0 0 0 0 0 0 0 0 0 0 0 6 11 9 12 0 0 0 0 0 0 0 5 9 1 5 7 6 6 3 7 8 8 8 7 10 11 26 63 147 12
0 12 30 1 230 112 30 0 0 0 0 0 1 0 0 1 8 0 0 0 0 0 0 0 6 2 5 4 8 0 0 6 10 8 6 21 13 10 12 10 9 2 2 0